Terminal Aerodrome Forecast
Issued by NWS

Current Version | Previous Version | Text Only | Print | Product List | Glossary On
Versions: 1 2 3 4 5 6 7 8 9 10 11 12 13 14 15 16 17 18 19 20 21 22 23 24 25 26 27 28 29
000 FTUS41 KOKX 022300 TAFHPN TAF KHPN 022340Z 0300/0324 20005KT P6SM SCT040 BKN250 FM030200 25006KT P6SM VCSH BKN040 BKN150 TEMPO 0302/0303 2SM TSRA BKN040CB FM030500 28008KT P6SM SCT040 SCT120 FM031000 32009KT P6SM SCT250 AMD NOT SKED=

USA.gov is the U.S. government's official web portal to all federal, state and local government web resources and services.